TimeCST,TemperatureF,Dew PointF,Humidity,Sea Level PressureIn,VisibilityMPH,Wind Direction,Wind SpeedMPH,Gust SpeedMPH,PrecipitationIn,Events,Conditions,WindDirDegrees,DateUTC
12:54 AM,36.0,30.0,79,29.97,10.0,WNW,19.6,-,N/A,,Mostly Cloudy,300,2011-11-26 06:54:00
1:54 AM,34.0,27.0,75,30.01,10.0,WNW,23.0,34.5,N/A,,Scattered Clouds,290,2011-11-26 07:54:00
2:52 AM,33.8,26.6,75,30.01,10.0,WNW,27.6,38.0,N/A,,Mostly Cloudy,300,2011-11-26 08:52:00
2:54 AM,34.0,27.0,75,30.07,10.0,WNW,27.6,38.0,N/A,,Scattered Clouds,300,2011-11-26 08:54:00
3:08 AM,33.8,26.6,75,30.01,10.0,WNW,28.8,39.1,N/A,,Mostly Cloudy,300,2011-11-26 09:08:00
3:54 AM,35.1,28.0,76,30.10,10.0,WNW,25.3,41.4,N/A,,Overcast,300,2011-11-26 09:54:00
4:54 AM,35.1,26.1,70,30.14,10.0,WNW,29.9,42.6,N/A,,Overcast,300,2011-11-26 10:54:00
5:17 AM,33.8,24.8,70,30.10,10.0,WNW,26.5,33.4,N/A,,Overcast,290,2011-11-26 11:17:00
5:54 AM,33.8,24.8,70,30.12,10.0,WNW,20.7,33.4,N/A,,Overcast,290,2011-11-26 11:54:00
6:54 AM,30.9,21.0,67,30.21,10.0,WNW,24.2,34.5,N/A,,Overcast,290,2011-11-26 12:54:00
7:54 AM,30.9,21.0,67,30.23,10.0,West,27.6,38.0,N/A,,Overcast,280,2011-11-26 13:54:00
8:54 AM,30.9,21.0,67,30.27,10.0,West,28.8,39.1,N/A,,Overcast,280,2011-11-26 14:54:00
9:54 AM,30.9,21.0,67,30.30,10.0,West,21.9,34.5,N/A,,Overcast,280,2011-11-26 15:54:00
10:54 AM,30.9,19.0,61,30.32,10.0,West,27.6,36.8,N/A,,Partly Cloudy,280,2011-11-26 16:54:00
11:54 AM,33.1,17.1,52,30.32,10.0,WNW,31.1,39.1,N/A,,Clear,290,2011-11-26 17:54:00
12:54 PM,33.1,15.1,48,30.33,10.0,WNW,33.4,40.3,N/A,,Clear,290,2011-11-26 18:54:00
1:54 PM,34.0,14.0,44,30.35,10.0,WNW,23.0,36.8,N/A,,Clear,300,2011-11-26 19:54:00
2:54 PM,34.0,12.0,40,30.36,10.0,WNW,28.8,35.7,N/A,,Clear,290,2011-11-26 20:54:00
3:54 PM,33.1,12.0,42,30.39,10.0,WNW,18.4,31.1,N/A,,Clear,300,2011-11-26 21:54:00
4:54 PM,30.0,14.0,51,30.41,10.0,WNW,13.8,-,N/A,,Clear,290,2011-11-26 22:54:00
5:54 PM,28.0,12.9,53,30.42,10.0,WNW,12.7,-,N/A,,Clear,290,2011-11-26 23:54:00
6:54 PM,26.1,12.9,58,30.44,10.0,West,8.1,-,N/A,,Clear,270,2011-11-27 00:54:00
7:54 PM,24.1,12.0,60,30.45,10.0,West,8.1,-,N/A,,Clear,280,2011-11-27 01:54:00
8:54 PM,24.1,12.0,60,30.43,10.0,West,9.2,-,N/A,,Clear,280,2011-11-27 02:54:00
9:54 PM,21.9,12.0,66,30.44,10.0,WSW,6.9,-,N/A,,Clear,250,2011-11-27 03:54:00
10:54 PM,21.9,12.0,66,30.42,10.0,WSW,8.1,-,N/A,,Partly Cloudy,240,2011-11-27 04:54:00
11:54 PM,19.0,12.0,74,30.41,10.0,SW,4.6,-,N/A,,Clear,220,2011-11-27 05:54:00